TimeCST,TemperatureF,Dew PointF,Humidity,Sea Level PressureIn,VisibilityMPH,Wind Direction,Wind SpeedMPH,Gust SpeedMPH,PrecipitationIn,Events,Conditions,WindDirDegrees,DateUTC
12:15 AM,-4.4,-9.9,77,30.47,10.0,Calm,Calm,-,N/A,,Clear,0,2014-03-06 06:15:00
12:35 AM,-6.9,-12.3,77,30.47,10.0,Calm,Calm,-,N/A,,Clear,0,2014-03-06 06:35:00
12:55 AM,-5.6,-11.0,77,30.47,10.0,Calm,Calm,-,N/A,,Clear,0,2014-03-06 06:55:00
1:15 AM,-6.9,-13.0,75,30.47,10.0,Calm,Calm,-,N/A,,Clear,0,2014-03-06 07:15:00
1:35 AM,-7.2,-13.2,75,30.48,10.0,Calm,Calm,-,N/A,,Clear,0,2014-03-06 07:35:00
1:55 AM,-10.5,-16.2,76,30.47,10.0,Calm,Calm,-,N/A,,Clear,0,2014-03-06 07:55:00
2:15 AM,-9.0,-15.0,75,30.46,10.0,Calm,Calm,-,N/A,,Clear,0,2014-03-06 08:15:00
2:35 AM,-8.1,-13.7,77,30.45,10.0,Calm,Calm,-,N/A,,Clear,0,2014-03-06 08:35:00
2:55 AM,-9.9,-15.7,76,30.44,10.0,Calm,Calm,-,N/A,,Clear,0,2014-03-06 08:55:00
3:15 AM,-12.3,-19.1,72,30.44,10.0,Calm,Calm,-,N/A,,Clear,0,2014-03-06 09:15:00
3:35 AM,-10.7,-16.4,76,30.43,10.0,Calm,Calm,-,N/A,,Clear,0,2014-03-06 09:35:00
3:55 AM,-11.7,-18.0,74,30.44,10.0,Calm,Calm,-,N/A,,Scattered Clouds,0,2014-03-06 09:55:00
4:15 AM,-8.9,-14.8,75,30.43,4.0,Calm,Calm,-,N/A,Snow,Light Snow,0,2014-03-06 10:15:00
4:35 AM,-10.3,-16.6,74,30.42,10.0,Calm,Calm,-,N/A,,Mostly Cloudy,0,2014-03-06 10:35:00
4:55 AM,-12.1,-18.4,74,30.43,10.0,Calm,Calm,-,N/A,,Scattered Clouds,0,2014-03-06 10:55:00
5:15 AM,-12.1,-18.4,74,30.42,10.0,Calm,Calm,-,N/A,,Clear,0,2014-03-06 11:15:00
5:35 AM,-13.0,-19.3,73,30.41,10.0,Calm,Calm,-,N/A,,Clear,0,2014-03-06 11:35:00
5:55 AM,-10.5,-16.1,76,30.41,10.0,Calm,Calm,-,N/A,,Clear,0,2014-03-06 11:55:00
6:15 AM,-11.2,-17.5,74,30.41,10.0,Calm,Calm,-,N/A,,Scattered Clouds,0,2014-03-06 12:15:00
6:35 AM,-11.7,-18.0,74,30.40,10.0,Calm,Calm,-,N/A,,Overcast,0,2014-03-06 12:35:00
6:55 AM,-8.9,-15.0,75,30.39,10.0,Calm,Calm,-,N/A,Snow,Light Snow,0,2014-03-06 12:55:00
7:15 AM,-8.7,-14.6,75,30.39,10.0,Calm,Calm,-,N/A,,Mostly Cloudy,0,2014-03-06 13:15:00
7:35 AM,-9.2,-15.3,74,30.38,10.0,Calm,Calm,-,N/A,,Clear,0,2014-03-06 13:35:00
7:55 AM,-7.6,-13.4,76,30.38,10.0,Calm,Calm,-,N/A,,Clear,0,2014-03-06 13:55:00
8:15 AM,-3.6,-8.9,78,30.38,10.0,Calm,Calm,-,N/A,,Clear,0,2014-03-06 14:15:00
8:35 AM,-2.7,-7.8,79,30.38,10.0,Calm,Calm,-,N/A,,Clear,0,2014-03-06 14:35:00
8:55 AM,0.7,-4.7,78,30.37,5.0,Calm,Calm,-,N/A,Snow,Light Snow,0,2014-03-06 14:55:00
9:15 AM,4.5,-2.4,73,30.36,10.0,Calm,Calm,-,N/A,,Clear,0,2014-03-06 15:15:00
9:35 AM,5.7,-0.9,74,30.35,10.0,Calm,Calm,-,N/A,,Clear,0,2014-03-06 15:35:00
9:55 AM,7.7,1.0,74,30.34,10.0,Calm,Calm,-,N/A,,Clear,0,2014-03-06 15:55:00
10:15 AM,9.9,3.0,74,30.33,10.0,Calm,Calm,-,N/A,,Clear,0,2014-03-06 16:15:00
10:35 AM,16.7,9.0,72,30.32,10.0,South,5.8,-,N/A,,Clear,180,2014-03-06 16:35:00
10:55 AM,23.7,11.8,61,30.31,10.0,SSW,6.9,-,N/A,,Clear,210,2014-03-06 16:55:00
11:15 AM,24.6,11.8,58,30.30,10.0,South,6.9,-,N/A,,Clear,180,2014-03-06 17:15:00
11:35 AM,25.3,12.0,57,30.29,10.0,SW,5.8,-,N/A,,Clear,220,2014-03-06 17:35:00
11:55 AM,26.1,12.0,55,30.28,10.0,South,8.1,-,N/A,,Clear,170,2014-03-06 17:55:00
12:15 PM,27.0,12.0,53,30.26,10.0,SSE,6.9,-,N/A,,Clear,150,2014-03-06 18:15:00
12:35 PM,26.8,13.1,56,30.24,10.0,South,6.9,-,N/A,,Clear,170,2014-03-06 18:35:00
12:55 PM,26.4,13.3,58,30.22,10.0,SE,12.7,-,N/A,,Clear,140,2014-03-06 18:55:00
1:15 PM,25.9,13.6,60,30.22,10.0,SE,10.4,-,N/A,,Clear,130,2014-03-06 19:15:00
1:35 PM,26.6,14.0,59,30.21,10.0,ESE,9.2,-,N/A,,Clear,120,2014-03-06 19:35:00
1:55 PM,27.9,12.2,52,30.20,10.0,SSE,10.4,-,N/A,,Clear,150,2014-03-06 19:55:00
2:15 PM,28.0,11.7,50,30.19,10.0,South,5.8,-,N/A,,Clear,170,2014-03-06 20:15:00
2:35 PM,28.2,11.5,50,30.19,10.0,SSE,8.1,-,N/A,,Clear,160,2014-03-06 20:35:00
2:55 PM,28.0,12.0,51,30.18,10.0,South,6.9,-,N/A,,Clear,180,2014-03-06 20:55:00
3:15 PM,28.0,11.8,51,30.16,10.0,SSE,6.9,-,N/A,,Clear,160,2014-03-06 21:15:00
3:35 PM,28.2,11.5,50,30.13,10.0,SSE,10.4,-,N/A,,Clear,150,2014-03-06 21:35:00
3:55 PM,28.4,10.2,47,30.14,10.0,South,6.9,-,N/A,,Clear,180,2014-03-06 21:55:00
4:20 PM,28.0,9.0,45,30.13,10.0,South,5.8,-,N/A,,Clear,170,2014-03-06 22:20:00
4:35 PM,27.7,9.3,46,30.13,10.0,Calm,Calm,-,N/A,,Clear,0,2014-03-06 22:35:00
4:55 PM,27.3,9.3,47,30.11,10.0,South,5.8,-,N/A,,Clear,180,2014-03-06 22:55:00
5:15 PM,26.6,9.5,49,30.10,10.0,South,5.8,-,N/A,,Clear,180,2014-03-06 23:15:00
5:35 PM,26.2,9.5,49,30.10,10.0,SSE,6.9,-,N/A,,Clear,160,2014-03-06 23:35:00
5:55 PM,25.3,9.9,52,30.09,10.0,South,4.6,-,N/A,,Clear,180,2014-03-06 23:55:00
6:15 PM,24.8,10.2,54,30.09,10.0,South,3.5,-,N/A,,Clear,180,2014-03-07 00:15:00
6:35 PM,24.6,10.4,55,30.08,10.0,South,4.6,-,N/A,,Clear,180,2014-03-07 00:35:00
6:55 PM,23.9,10.6,57,30.07,10.0,Calm,Calm,-,N/A,,Clear,0,2014-03-07 00:55:00
7:15 PM,22.6,10.4,59,30.06,10.0,South,3.5,-,N/A,,Clear,170,2014-03-07 01:15:00
7:35 PM,22.6,10.4,59,30.06,10.0,Calm,Calm,-,N/A,,Clear,0,2014-03-07 01:35:00
7:55 PM,21.7,10.2,61,30.05,10.0,Calm,Calm,-,N/A,,Clear,0,2014-03-07 01:55:00
8:15 PM,18.9,9.0,65,30.04,10.0,Calm,Calm,-,N/A,,Clear,0,2014-03-07 02:15:00
8:35 PM,16.3,8.6,72,30.04,10.0,Calm,Calm,-,N/A,,Clear,0,2014-03-07 02:35:00
9:00 PM,18.3,9.3,68,30.03,10.0,Calm,Calm,-,N/A,,Clear,0,2014-03-07 03:00:00
9:15 PM,18.5,9.5,68,30.03,10.0,Calm,Calm,-,N/A,,Clear,0,2014-03-07 03:15:00
9:35 PM,18.3,9.9,70,30.02,10.0,SSE,3.5,-,N/A,,Clear,160,2014-03-07 03:35:00
9:55 PM,18.5,10.8,72,30.01,10.0,South,3.5,-,N/A,,Clear,170,2014-03-07 03:55:00
10:15 PM,19.0,11.7,73,30.01,10.0,Calm,Calm,-,N/A,,Clear,0,2014-03-07 04:15:00
10:35 PM,18.9,11.8,74,29.99,10.0,Calm,Calm,-,N/A,,Clear,0,2014-03-07 04:35:00
10:55 PM,18.5,11.8,75,29.99,10.0,Calm,Calm,-,N/A,,Clear,0,2014-03-07 04:55:00
11:15 PM,18.7,12.0,75,29.99,10.0,Calm,Calm,-,N/A,,Clear,0,2014-03-07 05:15:00
11:35 PM,18.5,12.2,76,29.98,10.0,Calm,Calm,-,N/A,,Clear,0,2014-03-07 05:35:00
11:55 PM,18.9,12.2,75,29.97,10.0,South,3.5,-,N/A,,Clear,180,2014-03-07 05:55:00